Location: Unspecified
(49.9820°N, 20.4363°E)
Time: 14:36:21
(UTC+02:00)

ISS - Pass Details

Date: 23 May 2018
Orbit: 402 x 407 km, 51.6° (Epoch: 22 May)

Event Time Altitude Azimuth Distance (km) Brightness Sun altitude
Rises 22:08:18 0° 247° (WSW) 2,315 0.2 -12.2°
Reaches altitude 10° 22:10:23 10° 245° (WSW) 1,457 -0.9 -12.4°
Maximum altitude 22:13:38 76° 161° (SSE) 420 -4.0 -12.7°
Drops below altitude 10° 22:16:54 10° 75° (ENE) 1,460 -1.2 -13.0°
Sets 22:18:59 0° 73° (ENE) 2,321 -0.1 -13.2°
